DELTA 1 DEB, 10712

Orbit data source: Space-Track

DELTA 1 DEB, 10712 is space debris in SSO originally from a launch on Thu, 29 Jul 1976 UTC launched from the Air Force Western Test Range (AFWTR). Debris objects in space refer to the collection of defunct objects orbiting the Earth. Examples of debris include non-operational satellites, rocket bodies, and fragments generated from explosions, collisions, or faulty payload assembly.

Loading next visibility...
Identifier
10712, 1976-077AH
Orbit
SSO
Country
Flag of USUS
Related business
Manufacturer
Unknown
Mission
Spacecraft
Bus & Motor
Unknown
Mass
Unknown
Launch date (UTC)
1976-07-29 (50 years ago)
Launch vehicle
Unknown
Launch site
Air Force Western Test Range (AFWTR)
Object type
Payload
Rocket body
Debris
Shape & HBR
Unknown shape, 0.2 m
Radar Cross Section
Medium (>0.1 m² and <1 m²)

Expand to show TLE details & history
Last TLE update: 1 day ago

TLE from 1 day ago
0 DELTA 1 DEB
1 10712U 76077AH  26254.77357740  .00000818  00000-0  63568-2 0  9994
2 10712 102.2229  28.8798 0072675 296.7156 167.9997 12.40683429258390
Epoch: 2026-09-11T18:33Z
TLE epoch observation values (Epoch: 2026-09-11T18:33:57.087Z)
Latitude
70.89906°
Longitude
-21.90017°
Altitude
1,571.832 km
Speed
7.063 km/s
True Right ascension
16h 29m 31s
True Declination
70° 48' 12"
Sunlit
Object was in daylight at epoch
Visualization orbit readout
Latitude
Unknown
Longitude
Unknown
Altitude
Unknown
Speed
Unknown
Apparent Right ascension
Unknown
Apparent Declination
Unknown
Sunlit
N/A
Visualization observer readout
Local Sidereal Time
16:33:02
Azimuth
Unknown
Elevation
Unknown
Doppler factor
Unknown
Orbital elements
Apogee altitude
1,558.558 km
Perigee altitude
1,444.031 km
Semi-major axis
7,879.431 km
Eccentricity
0.00727
Inclination
102.2229°
RAAN
28.8798°
Arg. of periapsis
296.7156°
True anomaly
168.17133°
Mean anomaly
167.9997°
Eccentric anomaly
168.08566°
Mean motion
3.10314 °/min
Orbital period
116.01 mins
BSTAR
0.0063568
Loading maneuver chart data...
Computing Atmospheric mass density...
Loading historical data...
Loading historical data...
Loading historical data...
Loading historical data...
Loading historical data...
Loading historical data...
Loading historical data...

Documentation

Showing up to 5 results
|